Regional Weather Roundup
Issued by NWS

Home | Current Version | Previous Version | Text Only | Print | Product List | Glossary On
Versions: 1 2 3 4 5 6 7 8 9 10 11 12 13 14 15 16 17 18 19 20 21 22 23 24 25 26 27 28 29 30 31 32 33 34 35 36 37 38 39 40 41 42 43 44 45 46 47 48 49 50
000
ASUS44 KJAN 141910
RWRMS

MISSISSIPPI HOURLY WEATHER ROUNDUP
NATIONAL WEATHER SERVICE JACKSON MS
100 PM CST THU DEC 14 2017

NOTE: "FAIR: INDICATES FEW OR NO CLOUDS BELOW 12,000 FEET WITH NO
SIGNIFICANT WEATHER AND/OR OBSTRUCTIONS TO VISIBILITY.

MSZ001>002-007>008-010>013-018>021-025>028-034>036-142000-
NORTHWEST MISSISSIPPI

CITY           SKY/WX    TMP DP  RH WIND       PRES   REMARKS
BATESVILLE     FAIR      54  29  38 N7        30.01F
CLARKSDALE     SUNNY     52  34  50 N8G17     30.01F
CLEVELAND      FAIR      54  35  47 N9        30.00S
GREENWOOD      SUNNY     60  33  36 MISG      29.98S
GREENVILLE     SUNNY     57  31  37 NW9       29.99F
OLIVE BRANCH   MOSUNNY   46  27  46 NE8       30.01F
OXFORD         FAIR      52  30  43 NW8G15    30.00F
TUNICA           N/A    N/A N/A N/A N8        30.03F
WINONA         FAIR      58  33  37 NW3       29.96S
$$

MSZ003>006-009-014>017-022>024-029>033-037>039-142000-
NORTHEAST MISSISSIPPI

CITY           SKY/WX    TMP DP  RH WIND       PRES   REMARKS
ABERDEEN       FAIR      59  43  55 N8        29.97F
COLUMBUS AFB   SUNNY     58  35  42 CALM      29.95F
CORINTH        FAIR      50  30  46 VRB7G14   29.99F
GOLDN TRIANGLE SUNNY     59  33  37 VRB3        N/A
STARKVILLE     FAIR      59  32  36 E3        29.97F
TUPELO         SUNNY     53  30  41 NW7       29.97F
$$

MSZ040-058-142000-
CENTRAL MISSISSIPPI

CITY           SKY/WX    TMP DP  RH WIND       PRES   REMARKS
JACKSON INTL   CLOUDY    56  36  47 CALM      29.97F
JACKSON HAWKNS CLOUDY    54  37  52 CALM      29.98F
MADISON        FAIR      52  34  50 CALM      29.98S
MERIDIAN KEY   CLOUDY    55  36  48 VRB3      29.97F
MERIDIAN NAS   CLOUDY    55  36  48 CALM      29.97F
RAYMOND        FAIR      54  37  54 CALM      29.98S
VICKSBURG VKS  CLEAR     55  36  47 N6        29.99F
$$

MSZ059>079-142000-
SOUTH MISSISSIPPI

CITY           SKY/WX    TMP DP  RH WIND       PRES   REMARKS
HATTIESBURG    CLOUDY    60  39  45 VRB6      29.97F
LAUREL         FAIR      57  37  47 SW3       29.98S
MCCOMB         PTSUNNY   59  37  44 SW6       29.97F
NATCHEZ        PTSUNNY   55  38  52 S5        29.97F
PINE BELT      CLOUDY    58  41  53 CALM      29.98F
$$

MSZ080>082-142000-
COASTAL MISSISSIPPI

CITY           SKY/WX    TMP DP  RH WIND       PRES   REMARKS
BAY ST LOUIS   MOSUNNY   63  39  42 CALM      29.98F
BILOXI         MOSUNNY   57  46  66 S3        29.97F
PASCAGOULA     CLOUDY    62  39  42 SW3       29.99F
GULFPORT       CLOUDY    60  46  59 SE6       29.97F
$$

LAZ007>009-015>016-023>026-142000-
NORTHEAST LOUISIANA

CITY           SKY/WX    TMP DP  RH WIND       PRES   REMARKS
BASTROP        FAIR      58  32  38 NE5       29.99F
TALLULAH/VBURG CLOUDY    54  37  52 CALM      29.99F
VIDALIA          N/A    N/A N/A N/A MISG      29.97F
$$



USA.gov is the U.S. government's official web portal to all federal, state and local government web resources and services.